Location: Mason Neck State Park
(38.6428°N, 77.1981°W)
Time: 18:48:05
(UTC-04:00)

Daily predictions for brighter satellites

Satellite Brightness Start Highest point End
(mag) Time Altitude Azimuth Time Altitude Azimuth Time Altitude Azimuth
Meteor 2-21 4.5 20:14:01 10° S 20:20:09 82° E 20:26:22 10° N
SL-16 R/B 3.4 20:17:08 10° SE 20:21:01 19° E 20:24:53 10° NE
ATLAS 2AS CENTAUR R/B 3.0 20:14:42 10° NNW 20:22:36 71° NE 20:29:48 10° SE
Cosmos 1408 4.0 20:21:31 10° NNE 20:24:23 21° ENE 20:27:17 10° SE
Cosmos 1470 Rocket 4.4 20:20:29 10° NNE 20:24:29 33° ENE 20:28:29 10° SE
NOSS 0 Rocket 3.9 20:18:55 10° SSW 20:25:02 71° ESE 20:31:14 10° NNE
NOSS 3 (A) 4.5 20:22:59 10° SW 20:25:43 83° WNW 20:28:42 10° NNE
HJ-1C 3.7 20:26:28 10° S 20:29:48 70° W 20:33:10 10° NNW
Cosmos 220 Rocket 4.0 20:26:47 10° NNW 20:31:06 71° ENE 20:35:20 10° SSE
Cosmos 2154 Rocket 4.2 20:26:59 10° S 20:33:15 81° W 20:39:30 10° N
Cosmos 2098 Rocket 4.2 20:31:50 10° SE 20:35:09 20° E 20:38:00 10° NE
Resurs 01 Rocket 2.1 20:35:50 10° SE 20:40:01 43° ENE 20:44:13 10° N
ERS-2 2.1 20:37:24 10° SSE 20:41:02 74° ENE 20:44:43 10° N
YAOGAN 6 2.8 20:37:58 10° SSE 20:41:29 52° ENE 20:45:04 10° N
Cosmos 1151 Rocket 3.1 20:37:40 10° S 20:41:47 52° E 20:45:57 10° NNE
Spot 2 Rocket 4.1 20:37:35 10° SE 20:42:15 37° ENE 20:46:54 10° N
Cosmos 1980 3.7 20:39:51 10° SSW 20:45:32 90° ESE 20:51:16 10° NNE
Cosmos 1666 Rocket 4.4 20:42:26 10° NNW 20:46:48 55° W 20:51:07 10° S
Thor Agena Rocket 3.6 20:42:52 10° NNE 20:48:10 84° ESE 20:53:27 10° SSW
Sich 1 4.2 20:45:13 10° NNW 20:49:17 44° W 20:53:20 10° SSW
Meteor 2-3 Rocket 3.8 20:44:28 10° N 20:50:07 88° W 20:55:47 10° S
Cosmos 1933 Rocket 3.6 20:48:32 10° N 20:52:50 55° E 20:57:05 10° SSE
Cosmos 1844 Rocket 4.3 20:48:16 10° NW 20:53:20 34° WSW 20:58:20 10° SSW
Cosmos 1455 3.1 20:50:27 10° SSW 20:54:12 53° W 20:58:00 10° N
SJ-6B 3.9 20:50:50 10° S 20:54:42 47° W 20:58:31 10° NNW
Cosmos 2218 Rocket 4.1 20:55:01 10° S 21:01:14 61° E 21:07:32 10° NNE
Cosmos 2341 Rocket 4.3 20:54:57 10° SSW 21:01:17 73° W 21:07:37 10° N
Cosmos 1869 3.4 20:57:41 10° S 21:01:35 52° E 21:05:31 10° NNE
Cosmos 1441 Rocket 4.3 21:02:08 21° ESE 21:02:48 22° E 21:05:45 10° NE
Cosmos 2333 Rocket 3.7 20:58:07 10° SW 21:03:24 40° WNW 21:08:43 10° N
Cosmos 2219 Rocket 4.1 21:00:41 10° WSW 21:05:44 33° WNW 21:10:48 10° N
Resurs 1-3 3.5 21:01:30 10° SSE 21:05:53 87° ENE 21:10:17 10° NNW
Cosmos 2366 rocket 4.0 21:02:21 10° S 21:08:28 62° E 21:14:40 10° NNE
ATLAS CENTAUR R/B 4.2 21:06:51 10° W 21:09:31 19° NW 21:12:18 10° N
ERS-1 Rocket 4.5 21:09:54 17° E 21:11:33 20° ENE 21:15:08 10° NNE
Cosmos 2237 Rocket 2.8 21:06:34 10° SW 21:12:05 59° WNW 21:17:40 10° NNE
Cosmos 1939 Rocket 3.2 21:09:00 10° S 21:12:50 64° W 21:16:44 10° NNW
SL-8 Rocket 4.0 21:09:28 10° S 21:15:46 86° W 21:22:05 10° N
Cosmos 1869 Rocket 4.5 21:12:00 10° NNE 21:15:50 29° ENE 21:16:54 26° ESE
USA 186 3.2 21:16:23 10° SSW 21:18:13 23° W 21:20:10 10° NW
Cosmos 407 Rocket 3.6 21:16:42 10° N 21:21:44 54° ENE 21:24:14 28° SE
Cosmos 2278 Rocket 2.6 21:18:29 10° NNW 21:24:04 60° WSW 21:29:00 13° S
Cosmos 1339 Rocket 4.4 21:18:29 10° N 21:24:34 66° E 21:28:57 20° SSE
NOAA 11 4.1 21:21:28 16° SSE 21:25:52 84° ENE 21:31:24 10° NNW
Lacrosse 5 4.1 21:29:23 10° NNW 21:32:27 16° NNE 21:35:30 10° ENE
SPOT 5 4.4 21:35:32 18° ENE 21:35:35 18° ENE 21:38:36 10° NNE
Cosmos 405 Rocket 2.7 21:35:29 48° SE 21:36:09 56° E 21:40:01 10° NNE
OAO 3 Copernicus 4.4 21:31:23 10° WSW 21:36:17 55° S 21:37:49 39° ESE
Cosmos 1825 3.1 21:33:30 10° NNW 21:37:09 45° W 21:39:48 17° SSW
ASTRO E2 3.8 21:33:47 10° WSW 21:37:01 28° S 21:37:01 28° S
USA 81 4.0 21:34:53 10° N 21:40:08 64° E 21:42:17 35° SSE
H-2A R/B 2.4 21:43:19 38° ESE 21:44:25 44° ENE 21:49:07 10° N
Cosmos 676 Rocket 4.2 21:40:28 10° N 21:45:37 55° ENE 21:46:58 42° ESE
CZ-4C R/B 2.2 21:44:59 34° SSE 21:46:43 47° ESE 21:52:08 10° NE
MetOp-B 4.2 21:47:56 41° SE 21:49:32 58° ENE 21:54:47 10° N
Meteor 2-10 Rocket 4.2 21:47:34 10° SSW 21:53:14 63° W 21:59:02 10° N
ARGOS 3.1 21:51:35 42° SSE 21:53:23 73° ENE 21:58:44 10° N
Cosmos 1862 3.1 21:52:37 10° N 21:56:40 87° E 21:56:57 77° SSE
Cosmos 1452 Rocket 3.4 21:55:08 34° S 21:57:25 70° ESE 22:02:39 10° NNE
Cosmos 1943 Rocket 4.1 21:54:30 10° NNE 21:57:37 15° NE 21:58:32 15° ENE
SL-16 R/B 2.9 21:59:06 10° SW 22:04:37 54° WNW 22:10:11 10° NNE
Helios 1B rocket 4.4 22:03:32 10° NNE 22:04:56 19° NE 22:04:56 19° NE
Cosmos 1140 Rocket 3.3 22:02:36 10° NNW 22:07:46 74° ENE 22:08:24 65° ESE
Gblst 52 Del rocket 4.0 22:08:10 10° SW 22:13:48 87° SE 22:19:19 10° NE
Resurs 01 Rocket 4.2 22:13:57 10° SW 22:16:41 16° W 22:19:25 10° NW
Cosmos 2344 3.5 22:12:15 10° SSW 22:19:54 87° WNW 22:28:09 10° NNE
Cosmos 1000 Rocket 4.4 22:16:46 10° N 22:23:01 82° E 22:24:15 60° SSE
Cosmos 1954 Rocket 4.0 22:22:20 10° NNW 22:27:31 71° WSW 22:27:53 68° SW
Cosmos 1821 Rocket 3.9 22:26:23 50° S 22:28:15 89° WNW 22:34:34 10° N
Cosmos 1603 3.5 22:31:54 82° SE 22:31:58 83° ESE 22:37:36 10° NNE
Cosmos 1943 4.4 22:34:58 29° NE 22:34:58 29° NE 22:37:59 10° NE
Helios 1A 3.8 22:37:13 49° NNW 22:37:13 49° NNW 22:40:21 10° NNW
Terra 3.0 22:40:06 32° NE 22:40:06 32° NE 22:43:11 10° N
Cosmos 2369 Rocket 2.8 22:35:36 10° N 22:40:37 44° NE 22:40:37 44° NE
USA 267 3.6 22:41:36 10° NE 22:46:12 46° ENE 22:46:12 46° ENE
Cosmos 2123 Rocket 3.9 22:42:35 10° N 22:48:49 75° ENE 22:48:49 75° ENE
ERS-1 Rocket 3.7 22:49:53 45° WSW 22:49:58 45° W 22:54:47 10° NNW
ATLAS 5 CENTAUR R/B 2.9 22:53:10 10° NNW 22:58:49 51° NE 22:58:49 51° NE
Meteor 2-17 Rocket 4.4 23:02:06 80° WNW 23:02:06 80° WNW 23:08:07 10° N
Cosmos 1733 Rocket 4.5 22:57:48 10° NNW 23:00:32 36° NNW 23:00:32 36° NNW
Meteor 1-14 Rocket 4.4 22:57:17 10° N 23:02:01 66° NNW 23:02:01 66° NNW
GEOS 3 Rocket 4.1 23:02:58 10° NNE 23:08:06 60° NW 23:08:06 60° NW
CZ-2C R/B 4.3 23:14:32 31° NNE 23:14:32 31° NNE 23:17:13 10° N
SPOT 5 4.3 23:14:46 31° WNW 23:14:46 31° WNW 23:17:35 10° NNW
Lacrosse 5 3.0 23:11:21 10° NW 23:14:47 40° NNW 23:14:47 40° NNW
Cosmos 1605 Rocket 4.1 23:19:15 72° NW 23:19:15 72° NW 23:25:15 10° N
H-2A R/B 4.0 23:23:56 19° W 23:24:00 19° W 23:27:31 10° NW
ATLAS 2A CENTAUR R/B 4.3 23:10:15 10° WSW 23:22:31 38° SSW 23:22:31 38° SSW
CZ-4C R/B 4.1 23:31:03 10° W 23:35:29 27° NW 23:40:29 10° NNE
Cosmos 1943 Rocket 3.2 23:36:28 10° NNW 23:40:03 42° NNW 23:40:03 42° NNW
BREEZE-M DEB (TANK) 4.1 23:25:41 10° NW 23:44:19 72° WSW 23:44:19 72° WSW
